Time,TemperatureF,DewpointF,PressureIn,WindDirection,WindDirectionDegrees,WindSpeedMPH,WindSpeedGustMPH,Humidity,HourlyPrecipIn,Conditions,Clouds,dailyrainin,SolarRadiationWatts/m^2,SoftwareType,DateUTC
2013-02-01 00:03:00,68.0,61.0,-100.00,NNE,18,6.0,14.0,77,0.00,,,0.01,0.000000,,2013-02-01 05:03:00,
2013-02-01 00:12:00,68.0,61.0,-100.00,NNE,18,6.0,14.0,77,0.00,,,0.01,0.000000,,2013-02-01 05:12:00,
2013-02-01 00:22:00,68.0,61.0,-100.00,NNE,18,6.0,14.0,77,0.00,,,0.01,0.000000,,2013-02-01 05:22:00,
2013-02-01 00:32:00,68.0,61.0,-100.00,NNE,18,6.0,14.0,77,0.00,,,0.01,0.000000,,2013-02-01 05:32:00,
2013-02-01 01:02:00,67.0,58.0,-100.00,NNE,20,6.0,15.0,73,0.00,,,0.01,0.000000,,2013-02-01 06:02:00,
2013-02-01 01:12:00,67.0,58.0,-100.00,NNE,20,6.0,15.0,73,0.00,,,0.01,0.000000,,2013-02-01 06:12:00,
2013-02-01 01:22:00,67.0,58.0,-100.00,NNE,20,6.0,15.0,73,0.00,,,0.01,0.000000,,2013-02-01 06:22:00,
2013-02-01 01:32:00,67.0,58.0,-100.00,NNE,20,6.0,15.0,73,0.00,,,0.01,0.000000,,2013-02-01 06:32:00,
2013-02-01 02:02:00,65.0,55.0,-100.00,NNE,21,9.0,18.0,70,0.00,,,0.01,0.000000,,2013-02-01 07:02:00,
2013-02-01 02:12:00,65.0,55.0,-100.00,NNE,21,9.0,18.0,70,0.00,,,0.01,0.000000,,2013-02-01 07:12:00,
2013-02-01 02:22:00,65.0,55.0,-100.00,NNE,21,9.0,18.0,70,0.00,,,0.01,0.000000,,2013-02-01 07:22:00,
2013-02-01 02:32:00,65.0,55.0,-100.00,NNE,21,9.0,18.0,70,0.00,,,0.01,0.000000,,2013-02-01 07:32:00,
2013-02-01 02:52:00,63.0,49.0,-100.00,NNE,16,9.0,19.0,61,0.00,,,0.01,0.000000,,2013-02-01 07:52:00,
2013-02-01 03:01:00,63.0,49.0,-100.00,NNE,16,9.0,19.0,61,0.00,,,0.01,0.000000,,2013-02-01 08:01:00,
2013-02-01 03:11:00,63.0,49.0,-100.00,NNE,16,9.0,19.0,61,0.00,,,0.01,0.000000,,2013-02-01 08:11:00,
2013-02-01 03:21:00,63.0,49.0,-100.00,NNE,16,9.0,19.0,61,0.00,,,0.01,0.000000,,2013-02-01 08:21:00,
2013-02-01 03:32:00,63.0,49.0,-100.00,NNE,16,9.0,19.0,61,0.00,,,0.01,0.000000,,2013-02-01 08:32:00,
2013-02-01 03:52:00,62.0,50.0,-100.00,NNE,17,9.0,18.0,65,0.00,,,0.01,0.000000,,2013-02-01 08:52:00,
2013-02-01 04:02:00,62.0,50.0,-100.00,NNE,17,9.0,18.0,65,0.00,,,0.01,0.000000,,2013-02-01 09:02:00,
2013-02-01 04:11:00,62.0,50.0,-100.00,NNE,17,9.0,18.0,65,0.00,,,0.01,0.000000,,2013-02-01 09:11:00,
2013-02-01 04:21:00,62.0,50.0,-100.00,NNE,17,9.0,18.0,65,0.00,,,0.01,0.000000,,2013-02-01 09:21:00,
2013-02-01 04:32:00,62.0,50.0,-100.00,NNE,17,9.0,18.0,65,0.00,,,0.01,0.000000,,2013-02-01 09:32:00,
2013-02-01 04:52:00,62.0,50.0,-100.00,NNE,15,10.0,20.0,64,0.00,,,0.01,0.000000,,2013-02-01 09:52:00,
2013-02-01 05:01:00,62.0,50.0,-100.00,NNE,15,10.0,20.0,64,0.00,,,0.01,0.000000,,2013-02-01 10:01:00,
2013-02-01 05:11:00,62.0,50.0,-100.00,NNE,15,10.0,20.0,64,0.00,,,0.01,0.000000,,2013-02-01 10:11:00,
2013-02-01 05:21:00,62.0,50.0,-100.00,NNE,15,10.0,20.0,64,0.00,,,0.01,0.000000,,2013-02-01 10:21:00,
2013-02-01 05:32:00,62.0,50.0,-100.00,NNE,15,10.0,20.0,64,0.00,,,0.01,0.000000,,2013-02-01 10:32:00,
2013-02-01 05:53:00,61.0,49.0,-100.00,NNE,22,9.0,18.0,64,0.00,,,0.01,0.000000,,2013-02-01 10:53:00,
2013-02-01 06:02:00,61.0,49.0,-100.00,NNE,22,9.0,18.0,64,0.00,,,0.01,0.000000,,2013-02-01 11:02:00,
2013-02-01 06:11:00,61.0,49.0,-100.00,NNE,22,9.0,18.0,64,0.00,,,0.01,0.000000,,2013-02-01 11:11:00,
2013-02-01 06:22:00,61.0,49.0,-100.00,NNE,22,9.0,18.0,64,0.00,,,0.01,0.000000,,2013-02-01 11:22:00,
2013-02-01 06:32:00,61.0,49.0,-100.00,NNE,22,9.0,18.0,64,0.00,,,0.01,0.000000,,2013-02-01 11:32:00,
2013-02-01 06:53:00,61.0,50.0,-100.00,NNE,17,12.0,22.0,67,0.00,,,0.01,0.000000,,2013-02-01 11:53:00,
2013-02-01 07:03:00,61.0,50.0,-100.00,NNE,17,12.0,22.0,67,0.00,,,0.01,0.000000,,2013-02-01 12:03:00,
2013-02-01 07:12:00,61.0,50.0,-100.00,NNE,17,12.0,22.0,67,0.00,,,0.01,0.000000,,2013-02-01 12:12:00,
2013-02-01 07:23:00,61.0,50.0,-100.00,NNE,17,12.0,22.0,67,0.00,,,0.01,0.000000,,2013-02-01 12:23:00,
2013-02-01 07:32:00,61.0,50.0,-100.00,NNE,17,12.0,22.0,67,0.00,,,0.01,0.000000,,2013-02-01 12:32:00,
2013-02-01 08:02:00,61.0,52.0,-100.00,NNE,19,9.0,20.0,72,0.00,,,0.01,6.000000,,2013-02-01 13:02:00,
2013-02-01 08:12:00,61.0,52.0,-100.00,NNE,19,9.0,20.0,72,0.00,,,0.01,6.000000,,2013-02-01 13:12:00,
2013-02-01 08:22:00,61.0,52.0,-100.00,NNE,19,9.0,20.0,72,0.00,,,0.01,6.000000,,2013-02-01 13:22:00,
2013-02-01 08:33:00,61.0,52.0,-100.00,NNE,19,9.0,20.0,72,0.00,,,0.01,6.000000,,2013-02-01 13:33:00,
2013-02-01 08:53:00,62.0,52.0,-100.00,NNE,16,11.0,21.0,70,0.00,,,0.01,55.000000,,2013-02-01 13:53:00,
2013-02-01 09:03:00,62.0,52.0,-100.00,NNE,16,11.0,21.0,70,0.00,,,0.01,55.000000,,2013-02-01 14:03:00,
2013-02-01 09:12:00,62.0,52.0,-100.00,NNE,16,11.0,21.0,70,0.00,,,0.01,55.000000,,2013-02-01 14:12:00,
2013-02-01 09:22:00,62.0,52.0,-100.00,NNE,16,11.0,21.0,70,0.00,,,0.01,55.000000,,2013-02-01 14:22:00,
2013-02-01 09:32:00,62.0,52.0,-100.00,NNE,16,11.0,21.0,70,0.00,,,0.01,55.000000,,2013-02-01 14:32:00,
2013-02-01 10:03:00,65.0,53.0,-100.00,NNE,17,10.0,22.0,64,0.00,,,0.00,261.000000,,2013-02-01 15:03:00,
2013-02-01 10:12:00,65.0,53.0,-100.00,NNE,17,10.0,22.0,64,0.00,,,0.00,261.000000,,2013-02-01 15:12:00,
2013-02-01 10:22:00,65.0,53.0,-100.00,NNE,17,10.0,22.0,64,0.00,,,0.00,261.000000,,2013-02-01 15:22:00,
2013-02-01 10:33:00,65.0,53.0,-100.00,NNE,17,10.0,22.0,64,0.00,,,0.00,261.000000,,2013-02-01 15:33:00,
2013-02-01 11:03:00,65.0,53.0,-100.00,NNE,14,9.0,21.0,65,0.00,,,0.00,295.000000,,2013-02-01 16:03:00,
2013-02-01 11:12:00,65.0,53.0,-100.00,NNE,14,9.0,21.0,65,0.00,,,0.00,295.000000,,2013-02-01 16:12:00,
2013-02-01 11:22:00,65.0,53.0,-100.00,NNE,14,9.0,21.0,65,0.00,,,0.00,295.000000,,2013-02-01 16:22:00,
2013-02-01 11:33:00,65.0,53.0,-100.00,NNE,14,9.0,21.0,65,0.00,,,0.00,295.000000,,2013-02-01 16:33:00,
2013-02-01 11:53:00,68.0,52.0,-100.00,NE,37,9.0,19.0,57,0.00,,,0.00,503.000000,,2013-02-01 16:53:00,
2013-02-01 12:03:00,68.0,52.0,-100.00,NE,37,9.0,19.0,57,0.00,,,0.00,503.000000,,2013-02-01 17:03:00,
2013-02-01 12:12:00,68.0,52.0,-100.00,NE,37,9.0,19.0,57,0.00,,,0.00,503.000000,,2013-02-01 17:12:00,
2013-02-01 12:22:00,68.0,52.0,-100.00,NE,37,9.0,19.0,57,0.00,,,0.00,503.000000,,2013-02-01 17:22:00,
2013-02-01 12:32:00,68.0,52.0,-100.00,NE,37,9.0,19.0,57,0.00,,,0.00,503.000000,,2013-02-01 17:32:00,
2013-02-01 13:03:00,71.0,54.0,-100.00,NNE,27,10.0,18.0,55,0.00,,,0.00,552.000000,,2013-02-01 18:03:00,
2013-02-01 13:12:00,71.0,54.0,-100.00,NNE,27,10.0,18.0,55,0.00,,,0.00,552.000000,,2013-02-01 18:12:00,
2013-02-01 13:23:00,71.0,54.0,-100.00,NNE,27,10.0,18.0,55,0.00,,,0.00,552.000000,,2013-02-01 18:23:00,
2013-02-01 13:32:00,71.0,54.0,-100.00,NNE,27,10.0,18.0,55,0.00,,,0.00,552.000000,,2013-02-01 18:32:00,
2013-02-01 14:03:00,70.0,54.0,-100.00,NNE,33,10.0,19.0,57,0.00,,,0.00,450.000000,,2013-02-01 19:03:00,
2013-02-01 14:12:00,70.0,54.0,-100.00,NNE,33,10.0,19.0,57,0.00,,,0.00,450.000000,,2013-02-01 19:12:00,
2013-02-01 14:22:00,70.0,54.0,-100.00,NNE,33,10.0,19.0,57,0.00,,,0.00,450.000000,,2013-02-01 19:22:00,
2013-02-01 14:32:00,70.0,54.0,-100.00,NNE,33,10.0,19.0,57,0.00,,,0.00,450.000000,,2013-02-01 19:32:00,
2013-02-01 15:02:00,74.0,55.0,-100.00,NE,36,9.0,18.0,51,0.00,,,0.00,602.000000,,2013-02-01 20:02:00,
2013-02-01 15:12:00,74.0,55.0,-100.00,NE,36,9.0,18.0,51,0.00,,,0.00,602.000000,,2013-02-01 20:12:00,
2013-02-01 15:22:00,74.0,55.0,-100.00,NE,36,9.0,18.0,51,0.00,,,0.00,602.000000,,2013-02-01 20:22:00,
2013-02-01 15:32:00,74.0,55.0,-100.00,NE,36,9.0,18.0,51,0.00,,,0.00,602.000000,,2013-02-01 20:32:00,
2013-02-01 15:52:00,74.0,55.0,-100.00,NNE,32,9.0,18.0,51,0.00,,,0.00,518.000000,,2013-02-01 20:52:00,
2013-02-01 16:02:00,74.0,55.0,-100.00,NNE,32,9.0,18.0,51,0.00,,,0.00,518.000000,,2013-02-01 21:02:00,
2013-02-01 16:12:00,74.0,55.0,-100.00,NNE,32,9.0,18.0,51,0.00,,,0.00,518.000000,,2013-02-01 21:12:00,
2013-02-01 16:22:00,74.0,55.0,-100.00,NNE,32,9.0,18.0,51,0.00,,,0.00,518.000000,,2013-02-01 21:22:00,
2013-02-01 16:32:00,74.0,55.0,-100.00,NNE,32,9.0,18.0,51,0.00,,,0.00,518.000000,,2013-02-01 21:32:00,
2013-02-01 16:53:00,74.0,54.0,-100.00,NNE,33,9.0,17.0,49,0.00,,,0.00,376.000000,,2013-02-01 21:53:00,
2013-02-01 17:03:00,74.0,54.0,-100.00,NNE,33,9.0,17.0,49,0.00,,,0.00,376.000000,,2013-02-01 22:03:00,
2013-02-01 17:11:00,74.0,54.0,-100.00,NNE,33,9.0,17.0,49,0.00,,,0.00,376.000000,,2013-02-01 22:11:00,
2013-02-01 17:22:00,74.0,54.0,-100.00,NNE,33,9.0,17.0,49,0.00,,,0.00,376.000000,,2013-02-01 22:22:00,
2013-02-01 17:32:00,74.0,54.0,-100.00,NNE,33,9.0,17.0,49,0.00,,,0.00,376.000000,,2013-02-01 22:32:00,
2013-02-01 18:02:00,72.0,53.0,-100.00,NE,36,7.0,18.0,51,0.00,,,0.00,158.000000,,2013-02-01 23:02:00,
2013-02-01 18:11:00,72.0,53.0,-100.00,NE,36,7.0,18.0,51,0.00,,,0.00,158.000000,,2013-02-01 23:11:00,
2013-02-01 18:22:00,72.0,53.0,-100.00,NE,36,7.0,18.0,51,0.00,,,0.00,158.000000,,2013-02-01 23:22:00,
2013-02-01 18:32:00,72.0,53.0,-100.00,NE,36,7.0,18.0,51,0.00,,,0.00,158.000000,,2013-02-01 23:32:00,
2013-02-01 18:52:00,70.0,53.0,-100.00,NE,51,9.0,15.0,55,0.00,,,0.00,17.000000,,2013-02-01 23:52:00,
2013-02-01 19:02:00,70.0,53.0,-100.00,NE,51,9.0,15.0,55,0.00,,,0.00,17.000000,,2013-02-02 00:02:00,
2013-02-01 19:11:00,70.0,53.0,-100.00,NE,51,9.0,15.0,55,0.00,,,0.00,17.000000,,2013-02-02 00:11:00,
2013-02-01 19:22:00,70.0,53.0,-100.00,NE,51,9.0,15.0,55,0.00,,,0.00,17.000000,,2013-02-02 00:22:00,
2013-02-01 19:32:00,70.0,53.0,-100.00,NE,51,9.0,15.0,55,0.00,,,0.00,17.000000,,2013-02-02 00:32:00,
2013-02-01 20:03:00,69.0,54.0,-100.00,NE,46,11.0,19.0,59,0.00,,,0.00,0.000000,,2013-02-02 01:03:00,
2013-02-01 20:11:00,69.0,54.0,-100.00,NE,46,11.0,19.0,59,0.00,,,0.00,0.000000,,2013-02-02 01:11:00,
2013-02-01 20:22:00,69.0,54.0,-100.00,NE,46,11.0,19.0,59,0.00,,,0.00,0.000000,,2013-02-02 01:22:00,
2013-02-01 20:32:00,69.0,54.0,-100.00,NE,46,11.0,19.0,59,0.00,,,0.00,0.000000,,2013-02-02 01:32:00,
2013-02-01 21:01:00,69.0,58.0,-100.00,NE,54,11.0,21.0,67,0.00,,,0.00,0.000000,,2013-02-02 02:01:00,
2013-02-01 21:11:00,69.0,58.0,-100.00,NE,54,11.0,21.0,67,0.00,,,0.00,0.000000,,2013-02-02 02:11:00,
2013-02-01 21:22:00,69.0,58.0,-100.00,NE,54,11.0,21.0,67,0.00,,,0.00,0.000000,,2013-02-02 02:22:00,
2013-02-01 21:32:00,69.0,58.0,-100.00,NE,54,11.0,21.0,67,0.00,,,0.00,0.000000,,2013-02-02 02:32:00,
2013-02-01 21:52:00,68.0,56.0,-100.00,ENE,60,10.0,20.0,66,0.00,,,0.00,0.000000,,2013-02-02 02:52:00,
2013-02-01 22:02:00,68.0,56.0,-100.00,ENE,60,10.0,20.0,66,0.00,,,0.00,0.000000,,2013-02-02 03:02:00,
2013-02-01 22:11:00,68.0,56.0,-100.00,ENE,60,10.0,20.0,66,0.00,,,0.00,0.000000,,2013-02-02 03:11:00,
2013-02-01 22:22:00,68.0,56.0,-100.00,ENE,60,10.0,20.0,66,0.00,,,0.00,0.000000,,2013-02-02 03:22:00,
2013-02-01 22:32:00,68.0,56.0,-100.00,ENE,60,10.0,20.0,66,0.00,,,0.00,0.000000,,2013-02-02 03:32:00,
2013-02-01 22:52:00,68.0,58.0,-100.00,NE,55,10.0,22.0,71,0.00,,,0.00,0.000000,,2013-02-02 03:52:00,
2013-02-01 23:02:00,68.0,58.0,-100.00,NE,55,10.0,22.0,71,0.00,,,0.00,0.000000,,2013-02-02 04:02:00,
2013-02-01 23:11:00,68.0,58.0,-100.00,NE,55,10.0,22.0,71,0.00,,,0.00,0.000000,,2013-02-02 04:11:00,
2013-02-01 23:22:00,68.0,58.0,-100.00,NE,55,10.0,22.0,71,0.00,,,0.00,0.000000,,2013-02-02 04:22:00,
2013-02-01 23:32:00,68.0,58.0,-100.00,NE,55,10.0,22.0,71,0.00,,,0.00,0.000000,,2013-02-02 04:32:00,
2013-02-01 23:52:00,66.0,57.0,-100.00,NE,49,9.0,18.0,74,0.00,,,0.00,0.000000,,2013-02-02 04:52:00,